Prescott, AZ

8:26 AM MST on April 24, 2017 (GMT -0700)
Love

Weather History for KPRC - July, 2012

Change the Weather History Date:

Sunday, July 8, 2012

  Actual Average Record
Temperature  
Mean Temperature 81 °F 76 °F  
Max Temperature 96 °F 90 °F 100 °F (2002)
Min Temperature 66 °F 61 °F 51 °F (1969)
Degree Days  
Heating Degree Days 0    
Month to date heating degree days  
Since 1 July heating degree days  
Cooling Degree Days 16    
Month to date cooling degree days  
Year to date cooling degree days  
Growing Degree Days 31 (Base 50)    
Moisture  
Dew Point 32 °F    
Average Humidity 17    
Maximum Humidity 30    
Minimum Humidity 10    
Precipitation  
Precipitation 0.00 in 0.05 in 1.25 in (1990)
Month to date precipitation 0.35  
Year to date precipitation 5.28  
Sea Level Pressure  
Sea Level Pressure 29.88 in    
Wind  
Wind Speed 6 mph (South)    
Max Wind Speed 14 mph    
Max Gust Speed 16 mph    
Visibility 10 miles    
Events      
T = Trace of Precipitation, MM = Missing Value Source: NWS Daily Summary

Daily Weather History Graph

Daily Weather History Graph

Search for Another Location

Airport or City:

Trip Planner

Search our weather history database for the weather conditions in past years. The results will help you decide how hot, cold, wet, or windy it might be!

Date:

Astronomy

Jul. 08, 2012 Rise Set
Actual Time 5:24 AM MST 7:45 PM MST
Civil Twilight 4:54 AM MST 8:14 PM MST
Nautical Twilight 4:19 AM MST 8:50 PM MST
Astronomical Twilight 3:39 AM MST 9:29 PM MST
Moon 10:51 PM MST (7/8) 10:39 AM MST (7/8)
Length of Visible Light 15h 19m
Length of Day
14h 21m
Waning Gibbous, 72% of the Moon is Illuminated
Jul 8
Waning Gibbous
Jul 10
Last Quarter
Jul 18
New
Jul 26
First Quarter
Aug 1
Full

Hourly Weather History & Observations

Time (MST) Temp. Dew Point Humidity Pressure Visibility Wind Dir Wind Speed Gust Speed Precip Events Conditions
12:53 AM 73.9 °F 32.0 °F 21% 29.87 in 10.0 mi SSW 6.9 mph - N/A   Clear
1:53 AM 72.0 °F 34.0 °F 25% 29.88 in 10.0 mi South 6.9 mph - N/A   Clear
2:53 AM 71.1 °F 33.1 °F 25% 29.88 in 10.0 mi South 8.1 mph - N/A   Clear
3:53 AM 68.0 °F 35.1 °F 30% 29.89 in 10.0 mi South 4.6 mph - N/A   Clear
4:53 AM 69.1 °F 33.1 °F 26% 29.91 in 10.0 mi South 4.6 mph - N/A   Clear
5:53 AM 66.9 °F 33.1 °F 28% 29.92 in 10.0 mi Calm Calm - N/A   Clear
6:53 AM 75.0 °F 32.0 °F 21% 29.92 in 10.0 mi ESE 6.9 mph - N/A   Clear
7:53 AM 80.1 °F 39.0 °F 23% 29.94 in 10.0 mi SE 10.4 mph - N/A   Partly Cloudy
8:53 AM 82.9 °F 34.0 °F 17% 29.94 in 10.0 mi South 6.9 mph - N/A   Partly Cloudy
9:53 AM 86.0 °F 32.0 °F 14% 29.92 in 10.0 mi Calm Calm - N/A   Scattered Clouds
10:53 AM 87.1 °F 30.9 °F 13% 29.93 in 10.0 mi Calm Calm - N/A   Scattered Clouds
11:53 AM 93.0 °F 30.9 °F 11% 29.90 in 10.0 mi Variable 5.8 mph - N/A   Clear
12:53 PM 93.0 °F 30.0 °F 11% 29.88 in 10.0 mi Calm Calm - N/A   Scattered Clouds
1:53 PM 93.9 °F 30.9 °F 11% 29.86 in 10.0 mi SE 5.8 mph - N/A   Scattered Clouds
2:53 PM 93.0 °F 30.9 °F 11% 29.85 in 10.0 mi Variable 3.5 mph - N/A   Scattered Clouds
3:53 PM 96.1 °F 30.9 °F 10% 29.83 in 10.0 mi Variable 4.6 mph - N/A   Scattered Clouds
4:53 PM 96.1 °F 30.0 °F 10% 29.80 in 10.0 mi West 11.5 mph 16.1 mph N/A   Scattered Clouds
5:53 PM 95.0 °F 32.0 °F 11% 29.81 in 10.0 mi WNW 11.5 mph - N/A   Clear
6:53 PM 93.0 °F 30.0 °F 11% 29.82 in 10.0 mi West 13.8 mph - N/A   Partly Cloudy
7:53 PM 88.0 °F 28.9 °F 12% 29.84 in 10.0 mi SSW 6.9 mph - N/A   Scattered Clouds
8:53 PM 84.9 °F 30.9 °F 14% 29.86 in 10.0 mi SSW 8.1 mph - N/A   Clear
9:53 PM 84.9 °F 33.1 °F 16% 29.88 in 10.0 mi SE 8.1 mph - N/A   Clear
10:53 PM 78.1 °F 37.9 °F 24% 29.89 in 10.0 mi South 5.8 mph - N/A   Clear
11:53 PM 75.9 °F 34.0 °F 22% 29.89 in 10.0 mi SSW 5.8 mph - N/A   Clear